| time (UTC) | temp C | wind direction | speed KPH | gust KPH | rain 1hr cm | rain 24hr cm | rain mn cm | humidity % | barometer mb |
| 20260505011519 | 10 | 124 | 0.0 | 8.0 | 0.00 | 0.00 | 0.00 | 74 | 1005.8 |
| 20260505010008 | 10 | 197 | 1.6 | 8.0 | 0.00 | 0.00 | 0.00 | 73 | 1005.7 |
| 20260505004600 | 11 | 173 | 1.6 | 9.7 | 0.00 | 0.00 | 0.00 | 69 | 1005.4 |
| 20260505003033 | 12 | 165 | 3.2 | 8.0 | 0.00 | 0.00 | 0.00 | 63 | 1005.1 |
| 20260505001511 | 15 | 162 | 0.0 | 3.2 | 0.00 | 0.00 | 0.00 | 55 | 1004.9 |
| 20260505000109 | 17 | 117 | 1.6 | 6.4 | 0.00 | 0.00 | 0.00 | 47 | 1004.7 |
| 20260504234539 | 18 | 219 | 0.0 | 4.8 | 0.00 | 0.00 | 0.00 | 36 | 1004.3 |
| 20260504233021 | 19 | 264 | 0.0 | 3.2 | 0.00 | 0.00 | 0.00 | 35 | 1004.2 |
| 20260504231625 | 20 | 247 | 0.0 | 4.8 | 0.00 | 0.00 | 0.00 | 34 | 1003.9 |
| 20260504230037 | 20 | 286 | 1.6 | 6.4 | 0.00 | 0.00 | 0.00 | 33 | 1003.7 |
| 20260504224513 | 20 | 256 | 0.0 | 8.0 | 0.00 | 0.00 | 0.00 | 33 | 1003.6 |
| 20260504223057 | 20 | 294 | 1.6 | 11.3 | 0.00 | 0.00 | 0.00 | 32 | 1003.5 |
| 20260504221550 | 21 | 17 | 0.0 | 12.9 | 0.00 | 0.00 | 0.00 | 32 | 1003.4 |
| 20260504220015 | 21 | 236 | 1.6 | 29.0 | 0.00 | 0.00 | 0.00 | 31 | 1003.4 |
| 20260504214603 | 22 | 292 | 0.0 | 16.1 | 0.00 | 0.00 | 0.00 | 31 | 1003.4 |
| 20260504213040 | 22 | 355 | 4.8 | 19.3 | 0.00 | 0.00 | 0.00 | 29 | 1003.3 |
| 20260504211513 | 22 | 153 | 1.6 | 22.5 | 0.00 | 0.00 | 0.00 | 30 | 1003.4 |
| 20260504210053 | 22 | 232 | 0.0 | 12.9 | 0.00 | 0.00 | 0.00 | 30 | 1003.3 |
| 20260504204525 | 22 | 254 | 1.6 | 14.5 | 0.00 | 0.00 | 0.00 | 30 | 1003.3 |
| 20260504203052 | 22 | 336 | 0.0 | 19.3 | 0.00 | 0.00 | 0.00 | 31 | 1003.1 |
| 20260504201543 | 22 | 336 | 3.2 | 19.3 | 0.00 | 0.00 | 0.00 | 32 | 1003.2 |
| 20260504200015 | 21 | 296 | 1.6 | 11.3 | 0.00 | 0.00 | 0.00 | 33 | 1003.3 |
| 20260504194604 | 21 | 11 | 1.6 | 14.5 | 0.00 | 0.00 | 0.00 | 32 | 1003.4 |
| 20260504193030 | 21 | 307 | 1.6 | 12.9 | 0.00 | 0.00 | 0.00 | 34 | 1003.6 |
| 20260504191510 | 20 | 302 | 1.6 | 19.3 | 0.00 | 0.00 | 0.00 | 34 | 1003.6 |
| 20260504190047 | 18 | 265 | 0.0 | 16.1 | 0.00 | 0.00 | 0.00 | 37 | 1003.7 |
| 20260504184538 | 18 | 349 | 3.2 | 17.7 | 0.00 | 0.00 | 0.00 | 35 | 1003.8 |
| 20260504183006 | 19 | 252 | 3.2 | 22.5 | 0.00 | 0.00 | 0.00 | 33 | 1003.7 |
| 20260504181547 | 19 | 301 | 1.6 | 8.0 | 0.00 | 0.00 | 0.00 | 34 | 1003.7 |
| 20260504180036 | 19 | 282 | 8.0 | 19.3 | 0.00 | 0.00 | 0.00 | 33 | 1003.9 |
| 20260504174511 | 19 | 331 | 8.0 | 24.1 | 0.00 | 0.00 | 0.00 | 32 | 1003.6 |
| 20260504173050 | 20 | 231 | 9.7 | 25.7 | 0.00 | 0.00 | 0.00 | 31 | 1003.7 |
| 20260504171530 | 20 | 255 | 8.0 | 27.4 | 0.00 | 0.00 | 0.00 | 31 | 1003.6 |
| 20260504081521 | 3 | 270 | 0.0 | 0.0 | 0.00 | 0.00 | 0.00 | 67 | 1007.3 |
| 20260504050104 | 3 | 248 | 0.0 | 0.0 | 0.00 | 0.00 | 0.00 | 69 | 1007.1 |
| 20260504044542 | 3 | 213 | 0.0 | 1.6 | 0.00 | 0.00 | 0.00 | 70 | 1007.0 |
| 20260504043021 | 3 | 231 | 0.0 | 1.6 | 0.00 | 0.00 | 0.00 | 69 | 1006.9 |
| 20260504041601 | 3 | 321 | 0.0 | 1.6 | 0.00 | 0.00 | 0.00 | 68 | 1006.8 |
| 20260504040036 | 3 | 269 | 0.0 | 6.4 | 0.00 | 0.00 | 0.00 | 68 | 1006.8 |
| 20260504034518 | 3 | 234 | 0.0 | 0.0 | 0.00 | 0.00 | 0.00 | 66 | 1006.7 |
| 20260504033057 | 3 | 234 | 0.0 | 0.0 | 0.00 | 0.00 | 0.00 | 65 | 1006.6 |
| 20260504031533 | 4 | 234 | 0.0 | 1.6 | 0.00 | 0.00 | 0.00 | 64 | 1006.6 |
| 20260504030020 | 3 | 261 | 0.0 | 1.6 | 0.00 | 0.03 | 0.00 | 65 | 1006.6 |
| 20260504024601 | 4 | 268 | 0.0 | 1.6 | 0.00 | 0.03 | 0.00 | 65 | 1006.6 |
| 20260504023035 | 5 | 328 | 0.0 | 0.0 | 0.00 | 0.03 | 0.00 | 63 | 1006.5 |
| 20260504021508 | 5 | 328 | 0.0 | 1.6 | 0.00 | 0.03 | 0.00 | 61 | 1006.5 |
| 20260504020047 | 5 | 312 | 0.0 | 1.6 | 0.00 | 0.03 | 0.00 | 60 | 1006.5 |
| 20260504014525 | 6 | 331 | 0.0 | 3.2 | 0.00 | 0.03 | 0.00 | 59 | 1006.5 |
| 20260504013001 | 6 | 267 | 0.0 | 1.6 | 0.00 | 0.03 | 0.00 | 55 | 1006.5 |